sat.trackr.live / text

‹ back to catalog

STARLINK-32738

NORAD 63046 · 2025-034T

PAYLOAD ACTIVE UNKNOWN

§ Identity

Operator
Country
US
Launch date
2025-02-18
Launch site
AFETR
Launch vehicle
Mass (kg)
RCS (m²)

Purposes: comms

External: N2YO · Heavens-Above · Gunter

§ Orbital elements

Epoch: 2026-05-25T01:30:14.332032Z

Period
94.10 min
Inclination
53.1594°
Eccentricity
0.0001131
Mean motion
15.30210961 rev/d
Perigee alt
474.4 km
Apogee alt
476.0 km
Semi-major
6,853.3 km
B*
6.3950e-4
RAAN
263.1068°
Arg perigee
83.2751°
Mean anomaly
276.8379°
Rev number
7,078

§ Raw data

STARLINK-327381 63046U 25034T   26145.06266588  .00018635  00000+0  63950-3 0  99902 63046  53.1594 263.1068 0001131  83.2751 276.8379 15.30210961 70788

JSON: /api/v1/satellites/63046 · /tle

For live sub-satellite position, see the globe view (requires WebGL).

§ Visibility from observer

Set your observer location to see the next 7 days of passes ≥ 10°. The values pass through the URL so the page stays shareable.

No JS? Fill the form by hand. The geolocation button needs JavaScript.